Location: Newark
(15.4608°S, 41.1635°W)
Time: 23:26:22
(UTC+00:00)

Explorer 11/Cluster Stage 4 - Pass Details

Date: 07 August 2021
Orbit: 467 x 1256 km, 28.8° (Epoch: 24 September)

Event Time Altitude Azimuth Distance (km) Brightness Sun altitude
Rises 21:22:08 0° 259° (WSW) 3,342 11.1 -11.7°
Reaches altitude 10° 21:25:30 10° 242° (WSW) 2,243 9.7 -12.4°
Maximum altitude 21:29:17 20° 196° (SSW) 1,507 8.1 -13.3°
Enters shadow 21:32:17 11° 151° (SSE) 1,840 8.1 -14.0°
